Weather History for Monett, MO

Change the Weather History Date:

Sunday, November 4, 2012

  Actual Average (KJLN) Record (KJLN)
Temperature  
Mean Temperature 9 °C 12 °C  
Max Temperature 16 °C 18 °C 28 °C (1978)
Min Temperature 2 °C 6 °C -11 °C (1991)
Degree Days  
Heating Degree Days 18 12  
Month to date heating degree days 46  
Since 1 July heating degree days 298  
Cooling Degree Days 0 1  
Month to date cooling degree days 4  
Year to date cooling degree days 1695  
Moisture  
Dew Point 2 °C    
Average Humidity 67    
Maximum Humidity 93    
Minimum Humidity 39    
Precipitation  
Precipitation 0.00 mm 3.30 mm 5.49 mm (1994)
Month to date precipitation 0.52  
Year to date precipitation 40.47  
Sea Level Pressure  
Sea Level Pressure 1021 hPa    
Wind  
Wind Speed 5 km/h (ESE)    
Max Wind Speed 14 km/h    
Max Gust Speed -    
Visibility 12 kilometers    
Events Rain    
T = Trace of Precipitation, MM = Missing Value Source: NWS Daily Summary

Daily Weather History Graph

Daily Weather History Graph

Search for Another Location

Airport:

Trip Planner

Search our weather history database for the weather conditions in past years. The results will help you decide how hot, cold, wet, or windy it might be!

Date:

Astronomy

Nov. 04, 2012 Rise Set
Actual Time 6:43 AM CST 5:15 PM CST
Civil Twilight 6:16 AM CST 5:42 PM CST
Nautical Twilight 5:45 AM CST 6:13 PM CST
Astronomical Twilight 5:15 AM CST 6:43 PM CST
Moon 9:55 PM CST (11/4) 11:26 AM CST (11/4)
Length of Visible Light 11h 25m
Length of Day
10h 31m
Waning Gibbous, 72% of the Moon is Illuminated
Nov 4
Waning Gibbous
Nov 6
Last Quarter
Nov 13
New
Nov 20
First Quarter
Nov 28
Full

Hourly Weather History & Observations

Time (CST) Temp. Windchill Dew Point Humidity Pressure Visibility Wind Dir Wind Speed Gust Speed Precip Events Conditions
12:15 AM 5.0 °C - 2.0 °C 81% 1021.6 hPa 16.1 km Calm Calm - N/A   Clear
12:35 AM 5.0 °C 3.9 °C 2.0 °C 81% 1021.6 hPa 16.1 km ENE 5.6 km/h / 1.5 m/s - N/A   Clear
12:55 AM 5.0 °C 3.9 °C 2.0 °C 81% 1021.9 hPa 16.1 km ENE 5.6 km/h / 1.5 m/s - N/A   Clear
1:15 AM 5.0 °C 3.9 °C 2.0 °C 81% 1021.9 hPa 16.1 km NE 5.6 km/h / 1.5 m/s - N/A   Clear
1:35 AM 5.0 °C 3.9 °C 2.0 °C 81% 1021.9 hPa 16.1 km ENE 5.6 km/h / 1.5 m/s - N/A   Clear
1:55 AM 5.0 °C 3.9 °C 2.0 °C 81% 1021.9 hPa 16.1 km NE 5.6 km/h / 1.5 m/s - N/A   Clear
1:15 AM 5.0 °C 3.9 °C 2.0 °C 81% 1021.9 hPa 16.1 km NE 5.6 km/h / 1.5 m/s - N/A   Clear
1:35 AM 4.0 °C 2.1 °C 2.0 °C 87% 1021.6 hPa 16.1 km NE 7.4 km/h / 2.1 m/s - N/A   Clear
1:55 AM 5.0 °C 3.9 °C 2.0 °C 81% 1021.9 hPa 16.1 km ENE 5.6 km/h / 1.5 m/s - N/A   Clear
2:15 AM 5.0 °C 3.3 °C 2.0 °C 81% 1021.6 hPa 16.1 km ENE 7.4 km/h / 2.1 m/s - N/A   Clear
2:35 AM 4.0 °C 2.8 °C 2.0 °C 87% 1021.6 hPa 16.1 km NE 5.6 km/h / 1.5 m/s - N/A   Clear
2:55 AM 5.0 °C 3.9 °C 2.0 °C 81% 1021.6 hPa 16.1 km East 5.6 km/h / 1.5 m/s - N/A   Clear
3:15 AM 3.0 °C - 1.0 °C 87% 1021.6 hPa 16.1 km Calm Calm - N/A   Clear
3:35 AM 4.0 °C 2.8 °C 2.0 °C 87% 1021.6 hPa 16.1 km East 5.6 km/h / 1.5 m/s - N/A   Clear
3:55 AM 4.0 °C 2.1 °C 2.0 °C 87% 1021.9 hPa 16.1 km East 7.4 km/h / 2.1 m/s - N/A   Clear
4:15 AM 2.0 °C 0.5 °C 1.0 °C 93% 1021.9 hPa 16.1 km SE 5.6 km/h / 1.5 m/s - N/A   Clear
4:35 AM 3.0 °C 1.6 °C 2.0 °C 93% 1022.2 hPa 16.1 km SE 5.6 km/h / 1.5 m/s - N/A   Clear
4:55 AM 2.0 °C -0.2 °C 1.0 °C 93% 1022.2 hPa 16.1 km SE 7.4 km/h / 2.1 m/s - N/A   Clear
5:15 AM 2.0 °C -0.2 °C 1.0 °C 93% 1022.2 hPa 16.1 km SE 7.4 km/h / 2.1 m/s - N/A   Clear
5:35 AM 3.0 °C 0.5 °C 1.0 °C 87% 1021.9 hPa 16.1 km SE 9.3 km/h / 2.6 m/s - N/A   Clear
5:55 AM 3.0 °C 1.0 °C 2.0 °C 93% 1021.9 hPa 16.1 km ESE 7.4 km/h / 2.1 m/s - N/A   Clear
6:15 AM 3.0 °C - 2.0 °C 93% 1021.9 hPa 16.1 km Calm Calm - N/A   Clear
6:35 AM 3.0 °C - 1.0 °C 87% 1022.2 hPa 16.1 km Calm Calm - N/A   Clear
6:55 AM 3.0 °C - 1.0 °C 87% 1022.2 hPa 11.3 km Calm Calm - N/A   Clear
7:15 AM 2.0 °C - 1.0 °C 93% 1022.6 hPa 11.3 km Calm Calm - N/A   Clear
7:35 AM 3.0 °C - 2.0 °C 93% 1022.9 hPa 8.0 km Calm Calm - N/A   Clear
7:55 AM 4.0 °C - 3.0 °C 93% 1022.9 hPa 11.3 km Calm Calm - N/A   Clear
8:15 AM 6.0 °C - 3.0 °C 81% 1022.9 hPa 11.3 km Calm Calm - N/A   Clear
8:35 AM 7.0 °C - 3.0 °C 76% 1022.9 hPa 11.3 km Calm Calm - N/A   Clear
8:55 AM 7.0 °C - 4.0 °C 81% 1022.9 hPa 8.0 km Calm Calm - N/A   Haze
9:15 AM 8.0 °C - 4.0 °C 76% 1022.9 hPa 11.3 km Calm Calm - N/A   Clear
9:35 AM 9.0 °C - 4.0 °C 71% 1022.9 hPa 16.1 km ENE 5.6 km/h / 1.5 m/s - N/A   Clear
9:55 AM 10.0 °C - 4.0 °C 66% 1022.9 hPa 16.1 km Calm Calm - N/A   Clear
10:15 AM 11.0 °C - 3.0 °C 58% 1022.9 hPa 8.0 km NE 5.6 km/h / 1.5 m/s - N/A   Haze
10:35 AM 11.0 °C - 3.0 °C 58% 1022.9 hPa 8.0 km East 5.6 km/h / 1.5 m/s - N/A   Haze
10:55 AM 12.0 °C - 3.0 °C 54% 1022.6 hPa 6.4 km SE 5.6 km/h / 1.5 m/s - N/A   Haze
11:15 AM 12.0 °C - 2.0 °C 51% 1022.6 hPa 3.2 km Calm Calm - N/A   Haze
11:35 AM 13.0 °C - 3.0 °C 51% 1021.9 hPa 4.8 km SE 7.4 km/h / 2.1 m/s - N/A   Haze
11:55 AM 13.0 °C - 2.0 °C 47% 1021.6 hPa 4.0 km ESE 5.6 km/h / 1.5 m/s - N/A   Haze
12:15 PM 13.0 °C - 3.0 °C 51% 1021.2 hPa 11.3 km East 5.6 km/h / 1.5 m/s - N/A   Clear
12:55 PM 15.0 °C - 3.0 °C 45% 1020.9 hPa 11.3 km North 5.6 km/h / 1.5 m/s - N/A   Clear
1:15 PM 15.0 °C - 3.0 °C 45% 1020.5 hPa 16.1 km Calm Calm - N/A   Clear
1:35 PM 16.0 °C - 4.0 °C 45% 1020.2 hPa 16.1 km South 5.6 km/h / 1.5 m/s - N/A   Clear
1:55 PM 15.0 °C - 4.0 °C 48% 1019.9 hPa 16.1 km Calm Calm - N/A   Clear
2:15 PM 16.0 °C - 3.0 °C 42% 1019.9 hPa 16.1 km Calm Calm - N/A   Clear
2:35 PM 16.0 °C - 3.0 °C 42% 1019.9 hPa 16.1 km South 5.6 km/h / 1.5 m/s - N/A   Clear
2:55 PM 16.0 °C - 2.0 °C 39% 1019.5 hPa 16.1 km ESE 7.4 km/h / 2.1 m/s - N/A   Clear
3:15 PM 16.0 °C - 3.0 °C 42% 1019.2 hPa 16.1 km ESE 7.4 km/h / 2.1 m/s - N/A   Clear
3:35 PM 16.0 °C - 3.0 °C 42% 1018.8 hPa 16.1 km SE 5.6 km/h / 1.5 m/s - N/A   Clear
3:55 PM 16.0 °C - 3.0 °C 42% 1018.8 hPa 16.1 km Calm Calm - N/A   Clear
4:15 PM 16.0 °C - 3.0 °C 42% 1018.8 hPa 16.1 km Calm Calm - N/A   Clear
4:35 PM 15.0 °C - 3.0 °C 45% 1018.5 hPa 16.1 km Calm Calm - N/A   Clear
4:55 PM 15.0 °C - 3.0 °C 45% 1018.2 hPa 16.1 km Calm Calm - N/A   Clear
5:15 PM 14.0 °C - 2.0 °C 44% 1018.2 hPa 11.3 km East 5.6 km/h / 1.5 m/s - N/A   Clear
5:35 PM 14.0 °C - 3.0 °C 48% 1018.5 hPa 11.3 km East 7.4 km/h / 2.1 m/s - N/A   Clear
5:55 PM 13.0 °C - 3.0 °C 51% 1018.5 hPa 2.8 km East 9.3 km/h / 2.6 m/s - N/A   Haze
6:15 PM 12.0 °C - 3.0 °C 54% 1018.5 hPa 1.6 km ESE 9.3 km/h / 2.6 m/s - N/A   Haze
6:55 PM 11.0 °C - 2.0 °C 54% 1018.5 hPa 1.2 km ESE 9.3 km/h / 2.6 m/s - N/A   Haze
7:15 PM 11.0 °C - 2.0 °C 54% 1018.5 hPa 1.6 km ESE 9.3 km/h / 2.6 m/s - N/A   Haze
7:35 PM 10.0 °C - 2.0 °C 58% 1018.5 hPa 1.6 km ESE 9.3 km/h / 2.6 m/s - N/A   Haze
7:55 PM 10.0 °C - 2.0 °C 58% 1018.5 hPa 2.4 km ESE 11.1 km/h / 3.1 m/s - N/A Rain Light Rain
8:15 PM 10.0 °C - 2.0 °C 58% 1018.5 hPa 4.0 km ESE 11.1 km/h / 3.1 m/s - N/A   Haze
8:35 PM 10.0 °C - 2.0 °C 58% 1018.5 hPa 4.0 km ESE 11.1 km/h / 3.1 m/s - N/A   Haze
8:55 PM 10.0 °C - 3.0 °C 62% 1018.5 hPa 4.8 km SE 13.0 km/h / 3.6 m/s - N/A   Haze
9:15 PM 10.0 °C - 3.0 °C 62% 1018.2 hPa 6.4 km SE 13.0 km/h / 3.6 m/s - N/A   Haze
9:35 PM 10.0 °C - 3.0 °C 62% 1018.2 hPa 3.2 km SE 13.0 km/h / 3.6 m/s - N/A   Haze
9:55 PM 10.0 °C - 3.0 °C 62% 1018.2 hPa 16.1 km SE 14.8 km/h / 4.1 m/s - N/A   Clear
10:15 PM 10.0 °C - 3.0 °C 62% 1017.8 hPa 16.1 km SE 13.0 km/h / 3.6 m/s - N/A   Clear
10:35 PM 10.0 °C - 3.0 °C 62% 1018.2 hPa 16.1 km SE 11.1 km/h / 3.1 m/s - N/A   Clear
10:55 PM 10.0 °C - 3.0 °C 62% 1018.2 hPa 16.1 km SE 11.1 km/h / 3.1 m/s - N/A   Clear